Flag for Cabo Verde Weather past 2 weeks in Santa Maria, Cabo Verde

Now
79 °F

Passing clouds.


Feels Like: 81 °F
Forecast: N/A
Wind: 12 mph from Northeast

Location: Sal

Current Time: Jul 31, 2014 at 6:43:08 PM

Latest Report: Jul 31, 2014 at 6:00 PM


Visibility: N/A

Pressure: 29.95 "Hg

Humidity: 65%

Dew point: 66 °F

Location of Santa MariaLocation

Historic Weather in Santa Maria — Graph

°F

Santa Maria temperature yesterday

Maximum temperature yesterday: 82 °F (at 12:00 PM)
Minimum temperature yesterday: 73 °F (at 1:00 AM)
Average temperature yesterday: 77 °F

Past Weeks' High & Low Weather Summary

 TemperatureHumidityPressure
High104 °F (Jul 29, 3:00 AM)89% (Jul 22, 1:00 AM)30.09 "Hg (Jul 22, 1:00 AM)
Low72 °F (Jul 18, 1:00 AM)21% (Jul 29, 3:00 AM)29.92 "Hg (Jul 25, 5:00 PM)
Average77 °F70%30.00 "Hg
* Reported Jul 16 5:00 PM — Jul 31 5:00 PM, Santa Maria, Weather by CustomWeather, © 2014

Note: Actual official high and low records may vary slightly from our data, if they occured in-between our weather recording intervals... More about our weather records

Advertising

Santa Maria weather history for previous 24 hours

 ConditionsComfort  
Time TempWeatherWind HumidityBarometerVisibility
5:00 PM
Jul 31
81 °FPartly sunny.15 mph62%29.92 "HgN/A
4:00 PM81 °FPartly sunny.14 mph62%29.95 "HgN/A
3:00 PM82 °FScattered clouds.15 mph58%29.95 "HgN/A
2:00 PM82 °FScattered clouds.15 mph55%29.95 "HgN/A
1:00 PM84 °FScattered clouds.15 mph55%29.98 "HgN/A
12:00 PM82 °FScattered clouds.13 mph55%29.98 "HgN/A
11:00 AM82 °FPassing clouds.14 mph55%29.98 "HgN/A
10:00 AM81 °FPartly sunny.14 mph62%29.98 "HgN/A
9:00 AM79 °FScattered clouds.13 mph65%29.98 "HgN/A
8:00 AM77 °FPartly sunny.12 mph65%29.98 "HgN/A
7:00 AM75 °FPartly sunny.10 mph69%29.98 "HgN/A
6:00 AM75 °FPartly sunny.12 mph69%29.95 "HgN/A
5:00 AM75 °FPartly sunny.9 mph69%29.95 "HgN/A
4:00 AM75 °FPassing clouds.8 mph69%29.95 "HgN/A
3:00 AM75 °FPassing clouds.10 mph74%29.95 "HgN/A
2:00 AM75 °FPassing clouds.12 mph74%29.95 "HgN/A
1:00 AM75 °FPassing clouds.12 mph74%29.98 "HgN/A
12:00 AM75 °FPassing clouds.10 mph78%29.98 "HgN/A
11:00 PM
Jul 30
75 °FPassing clouds.10 mph74%29.98 "HgN/A
10:00 PM75 °FPassing clouds.13 mph74%29.98 "HgN/A
9:00 PM75 °FPassing clouds.10 mph74%29.95 "HgN/A
8:00 PM75 °FPassing clouds.13 mph74%29.95 "HgN/A
7:00 PM77 °FPassing clouds.15 mph69%29.92 "HgN/A
6:00 PM79 °FPassing clouds.14 mph65%29.92 "HgN/A
Weather by CustomWeather, © 2014

See weather overviewHow to use our weather pages